Weather History for Nashville, TN

Change the Weather History Date:

Friday, March 14, 2014

  Actual Average Record
Temperature  
Mean Temperature 52 °F 49 °F  
Max Temperature 67 °F 60 °F 83 °F (1967)
Min Temperature 36 °F 39 °F 18 °F (1926)
Degree Days  
Heating Degree Days 13 16  
Month to date heating degree days 271 247  
Since 1 July heating degree days 3456 3185  
Cooling Degree Days 0 0  
Month to date cooling degree days 0 0  
Year to date cooling degree days 0 0  
Growing Degree Days 1 (Base 50)    
Moisture  
Dew Point 29 °F    
Average Humidity 42    
Maximum Humidity 59    
Minimum Humidity 24    
Precipitation  
Precipitation T in 0.14 in 1.75 in (1912)
Month to date precipitation 2.46 1.82  
Year to date precipitation 10.16 9.51  
Snow  
Snow 0.00 in 0.00 in 1.40 in (1999)
Month to date snowfall 0.1 0.5  
Since 1 July snowfall 1.5 5.9  
Snow Depth 0.00 in    
Sea Level Pressure  
Sea Level Pressure 30.10 in    
Wind  
Wind Speed 11 mph (SSW)    
Max Wind Speed 25 mph    
Max Gust Speed 32 mph    
Visibility 10 miles    
Events Rain    
T = Trace of Precipitation, MM = Missing Value Source: NWS Daily Summary

Daily Weather History Graph

Daily Weather History Graph

Search for Another Location

Airport:

Trip Planner

Search our weather history database for the weather conditions in past years. The results will help you decide how hot, cold, wet, or windy it might be!

Date:

Astronomy

Mar. 14, 2014 Rise Set
Actual Time 6:58 AM CDT 6:53 PM CDT
Civil Twilight 6:33 AM CDT 7:18 PM CDT
Nautical Twilight 6:03 AM CDT 7:48 PM CDT
Astronomical Twilight 5:33 AM CDT 8:18 PM CDT
Moon 5:17 PM CDT (3/14) 5:36 AM CDT (3/14)
Length of Visible Light 12h 45m
Length of Day
11h 54m
Waxing Gibbous, 96% of the Moon is Illuminated
Mar 14
Waxing Gibbous
Mar 16
Full
Mar 23
Last Quarter
Mar 30
New
Apr 7
First Quarter

Hourly Weather History & Observations

Time (CDT) Temp. Windchill Dew Point Humidity Pressure Visibility Wind Dir Wind Speed Gust Speed Precip Events Conditions
12:53 AM 37.9 °F 32.1 °F 25.0 °F 60% 30.16 in 10.0 mi South 8.1 mph - N/A   Clear
1:53 AM 42.1 °F 37.1 °F 26.1 °F 53% 30.16 in 10.0 mi South 8.1 mph - N/A   Clear
2:53 AM 42.1 °F 39.2 °F 26.1 °F 53% 30.16 in 10.0 mi SSE 4.6 mph - N/A   Clear
3:53 AM 42.1 °F 38.4 °F 27.0 °F 55% 30.14 in 10.0 mi South 5.8 mph - N/A   Clear
4:53 AM 43.0 °F 39.5 °F 27.0 °F 53% 30.15 in 10.0 mi South 5.8 mph - N/A   Clear
5:53 AM 42.1 °F 36.6 °F 27.0 °F 55% 30.14 in 10.0 mi South 9.2 mph - N/A   Clear
6:53 AM 44.1 °F 38.1 °F 27.0 °F 51% 30.15 in 10.0 mi SSW 11.5 mph - N/A   Partly Cloudy
7:53 AM 46.9 °F - 27.0 °F 46% 30.16 in 10.0 mi SSW 17.3 mph 20.7 mph N/A   Partly Cloudy
8:53 AM 51.1 °F - 28.0 °F 41% 30.17 in 10.0 mi SSW 20.7 mph 29.9 mph N/A   Scattered Clouds
9:53 AM 55.0 °F - 28.9 °F 37% 30.17 in 10.0 mi SSW 19.6 mph 25.3 mph N/A   Mostly Cloudy
10:53 AM 59.0 °F - 28.9 °F 32% 30.16 in 10.0 mi SSW 20.7 mph 28.8 mph N/A   Scattered Clouds
11:53 AM 62.1 °F - 28.9 °F 29% 30.13 in 10.0 mi SSW 12.7 mph 28.8 mph N/A   Mostly Cloudy
12:53 PM 62.1 °F - 28.9 °F 29% 30.10 in 10.0 mi SW 13.8 mph 32.2 mph N/A   Mostly Cloudy
1:53 PM 64.0 °F - 30.0 °F 28% 30.04 in 10.0 mi SSW 18.4 mph 28.8 mph N/A   Mostly Cloudy
2:53 PM 64.9 °F - 28.9 °F 26% 30.01 in 10.0 mi SSW 17.3 mph 28.8 mph N/A   Mostly Cloudy
3:53 PM 66.9 °F - 28.9 °F 24% 30.01 in 10.0 mi SW 9.2 mph 23.0 mph N/A   Mostly Cloudy
4:53 PM 64.9 °F - 26.1 °F 23% 30.00 in 10.0 mi SW 12.7 mph 27.6 mph N/A   Overcast
5:53 PM 63.0 °F - 30.9 °F 30% 30.02 in 10.0 mi WSW 16.1 mph 31.1 mph 0.00 in Rain Light Rain
6:53 PM 61.0 °F - 30.0 °F 31% 30.03 in 10.0 mi WSW 10.4 mph - 0.00 in   Overcast
7:53 PM 59.0 °F - 35.1 °F 41% 30.02 in 10.0 mi SW 5.8 mph 23.0 mph N/A   Overcast
8:53 PM 55.0 °F - 35.1 °F 47% 30.04 in 10.0 mi SSW 4.6 mph - N/A   Partly Cloudy
9:53 PM 55.0 °F - 35.1 °F 47% 30.05 in 10.0 mi SSW 6.9 mph - N/A   Scattered Clouds
10:53 PM 54.0 °F - 35.1 °F 49% 30.06 in 10.0 mi SSW 3.5 mph - N/A   Mostly Cloudy
11:53 PM 53.1 °F - 34.0 °F 48% 30.06 in 10.0 mi SSW 6.9 mph - N/A   Partly Cloudy